Regional Weather Roundup
Issued by NWS Little Rock, AR

Home | Current Version | Previous Version | Graphics & Text | Print | Product List | Glossary On
Versions: 1 2 3 4 5 6 7 8 9 10 11 12 13 14 15 16 17 18 19 20 21 22 23 24 25 26 27 28 29 30 31 32 33 34 35 36 37 38 39 40 41 42 43 44 45 46 47 48 49 50
000
ASUS44 KLZK 222305
RWRLZK

WEATHER ROUNDUP FOR ARKANSAS
NATIONAL WEATHER SERVICE LITTLE ROCK AR
600 PM CDT WED MAR 22 2017

NOTE: "FAIR" INDICATES FEW OR NO CLOUDS BELOW 12,000 FEET WITH NO
SIGNIFICANT WEATHER AND/OR OBSTRUCTIONS TO VISIBILITY.

ARZ001-003-010-029-230000-
NORTHWEST ARKANSAS

CITY           SKY/WX    TMP DP  RH WIND       PRES   REMARKS
FAYETTEVILLE   CLOUDY    59  45  59 E7        30.16F
FORT SMITH     CLOUDY    61  44  53 E17       30.15F
HARRISON       CLOUDY    54  37  52 E12       30.23S
BENTONVILLE    CLOUDY    55  39  54 E12       30.19S
ROGERS         CLOUDY    55  41  59 E14       30.19F
SILOAM SPGS    CLOUDY    57  41  54 E9        30.15F
HIGHFILL       CLOUDY    57  42  57 E10       30.17F
SPRINGDALE     CLOUDY    55  43  62 E12       30.19F
$$

ARZ004-005-016-230000-
NORTH CENTRAL ARKANSAS

CITY           SKY/WX    TMP DP  RH WIND       PRES   REMARKS
BATESVILLE     MOSUNNY   57  39  51 NE12G17   30.28S
FLIPPIN        CLOUDY    57  30  35 SE10      30.21F
MTN HOME       CLOUDY    57  31  37 SE7       30.23F
$$

ARZ040-041-230000-
WEST CENTRAL ARKANSAS

CITY           SKY/WX    TMP DP  RH WIND       PRES   REMARKS
MENA           MOSUNNY   73  54  49 SE3       30.15R
MOUNT IDA      SUNNY     67  47  48 MISG      30.16S
$$

ARZ009-017-025-026-028-230000-
NORTHEAST ARKANSAS

CITY           SKY/WX    TMP DP  RH WIND       PRES   REMARKS
CORNING        FAIR      55  34  44 E17       30.31F
JONESBORO      CLOUDY    55  35  47 NE15      30.28F
NEWPORT        CLOUDY    56  42  59 NE15      30.27F
WALNUT RIDGE   MOSUNNY   55  34  44 NE16      30.29F
BLYTHEVILLE    SUNNY     58  32  37 NE13      30.30S
$$

ARZ022-023-033-042-044-230000-
CENTRAL ARKANSAS

CITY           SKY/WX    TMP DP  RH WIND       PRES   REMARKS
LITTLE ROCK    PTSUNNY   61  45  55 E12       30.23S
CONWAY           N/A     63  45  51 E14       30.21F
SEARCY         CLOUDY    58  39  49 NE16      30.27S
HOT SPRINGS    SUNNY     65  48  54 E9        30.19F
RUSSELLVILLE   PTSUNNY   61  43  51 E9        30.21S
CLINTON        CLOUDY    59  41  51 E7        30.25R
$$

ARZ036-230000-
EAST ARKANSAS

CITY           SKY/WX    TMP DP  RH WIND       PRES   REMARKS
WEST MEMPHIS   CLOUDY    60  36  40 NE10      30.24S
$$

ARZ050-053-066-070-073-230000-
SOUTHWEST ARKANSAS

CITY           SKY/WX    TMP DP  RH WIND       PRES   REMARKS
ARKADELPHIA    FAIR      66  52  60 E7        30.19F
CAMDEN         SUNNY     68  48  49 NE8       30.17S
TEXARKANA      SUNNY     73  57  57 SE5       30.13S
EL DORADO      SUNNY     76  54  46 NE6       30.15S
DE QUEEN       MOSUNNY   73  57  57 SE6       30.11F
$$

ARZ056-057-069-230000-
SOUTHEAST ARKANSAS

CITY           SKY/WX    TMP DP  RH WIND       PRES   REMARKS
PINE BLUFF     SUNNY     65  48  54 NE10      30.21F
STUTTGART      PTSUNNY   63  41  45 NE15      30.23S
MONTICELLO     SUNNY     69  49  48 NE10      30.19R

$$





USA.gov is the U.S. government's official web portal to all federal, state and local government web resources and services.